FLOCK 4Y-5 (55028 NORAD) Tracking and Keplerian Element Data

This shows tracking and keplerian element data for the satellite.

Feedback or suggestion? Click here.




ElementValue
Catalog55028
NameFLOCK 4Y-5
Epoch Orbit1245
Epoch Day84.90256785
Epoch Year2023
RAAN145.7316
Inclination97.4874
Eccentricity0.0010276
Argument of Perigee291.2451
Mean Anonmoly68.7683
Mean Motion15.15961954
Decay Rate0.00013134
L11 55028U 23001V 23084.90256785 .00013134 00000+0 68649-3 0 9992
L22 55028 97.4874 145.7316 0010276 291.2451 68.7683 15.15961954 12454



Live tracking and technical data element details for FLOCK 4Y-5 (NORAD 55028). FLOCK 4Y-5 can be tracked NOW for your location showing map with azimuth and elevation plus other details from your city location.







IsCatalogInMostPopularTable: catalog: 55028, numindb: 9
Update: records affected: 1



GetName: 55028 FLOCK 4Y-5

Hit Count: updated at: Mon, 27 Mar 2023 07:08:16 GMT